Regional Weather Roundup
Issued by NWS Newport/Morehead, NC

Current Version | Previous Version | Graphics & Text | Print | Product List | Glossary Off
Versions: 1 2 3 4 5 6 7 8 9 10 11 12 13 14 15 16 17 18 19 20 21 22 23 24 25 26 27 28 29 30 31 32 33 34 35 36 37 38 39 40 41 42 43 44 45 46 47 48 49 50

000
ASUS42 KMHX 010925
RWRMHX
WEATHER ROUNDUP FOR EASTERN NORTH CAROLINA
NATIONAL WEATHER SERVICE NEWPORT/MOREHEAD CITY NC
500 AM EDT SAT OCT 01 2016

NOTE: "FAIR" INDICATES FEW OR NO CLOUDS BELOW 12,000 FEET
WITH NO SIGNIFICANT WEATHER AND/OR OBSTRUCTIONS TO VISIBILITY

NCZ015>017-031-032-045>047-102-103-011000-
NORTH COAST

CITY           SKY/WX    TMP DP  RH WIND       PRES   REMARKS
EDENTON        CLOUDY    76  76 100 SE3       30.02F
ELIZABETH CITY CLOUDY    75  73  93 S5        30.03S
KITTY HAWK     CLOUDY    77  76  99 S3        30.02S
MANTEO         CLOUDY    77  75  93 S10       30.03S

$$

NCZ045>047-081-094-103-104-011000-
CENTRAL COAST

CITY           SKY/WX    TMP DP  RH WIND       PRES   REMARKS
FRISCO         CLOUDY    78  74  87 S13       30.02F

$$

NCZ095-097-098-100-101-011000-
SOUTHERN COAST

CITY           SKY/WX    TMP DP  RH WIND       PRES   REMARKS
BEAUFORT       CLOUDY    76  73  91 S7        30.03F
CEDAR ISLAND   NOT AVBL
JACKSONVILLE   CLOUDY    74  72  93 S3        30.04R
PINEY ISLAND   CLOUDY   N/A N/A N/A S6        30.02S
WILMINGTON     MOCLDY    69  68  96 CALM      30.04R FOG


$$

NCZ011>013-027>030-043-044-078>080-089-090>093-098-011000-
COASTAL PLAIN

CITY           SKY/WX    TMP DP  RH WIND       PRES   REMARKS
AHOSKIE        CLOUDY    71  70  99 CALM      30.03R FOG
CLINTON        FOG       66  66 100 CALM      30.04R VSB 1/4
ELIZABETHTOWN  CLEAR     65  65 100 CALM      30.04R
GOLDSBORO      FOG       70  70 100 SW3       30.01R VSB 1/4
GREENVILLE     CLOUDY    73  73 100 S3        30.05R
HAVELOCK       CLOUDY    73  71  93 SW3       30.04S
KENANSVILLE    FOG       64  64 100 CALM      30.04R VSB 3/4
KINSTON        CLOUDY    73  73  99 SE3       30.04R FOG
NEW BERN       LGT RAIN  72  70  93 SW3       30.04S
RICHLANDS      CLOUDY    73  73 100 E5        30.04R
ROCKY MOUNT    CLOUDY    71  71 100 SW5       30.02S FOG
WASHINGTON     CLOUDY    73  71  92 S5        30.03R
WHITEVILLE     NOT AVBL

$$

AMZ130-135-150-152-154-156-158-170-250-252-270-ANZ085-086-088-633-658-670-011000-
MARINE OBSERVATIONS

STATION/POSITION TIME  TEMP    WIND        PRES    WAVE   SWELL
                       AIR SEA DIR/SP/G            HT/PER HT/PER
                 (UTC) (F)     (DEG/KT/KT) (MB)    (FT/S) (FT/S)
CHESAPEAKE LIGHT NOT AVBL
64 E VA BEACH    0850   75 75  110/  6/  6 1017.7    7/10   7/10
DUCK             0900   77 76  160/  6/  8 1016.4
2 E DUCK         0841      76                N/A     5/11   2/11
OREGON INLET     0900   78 79  160/  8/ 11 1016.8
13E OREGON INLT  0830      76                N/A     6/10   5/10
HATTERAS CG      0900   78 79  160/ 11/ 14 1016.3
DIAMOND BUOY     0850   81 84  180/ 17/ 19 1016.4    6/11   5/11
CAPE LOOKOUT     0900   78     200/ 16/ 18 1016.6
BEAUFORT LAB     0900   78 76  200/ 13/ 16 1016.3
30 SE NEW RVR IN 0908   78 82  190/ 14/ 19 1017.6
30 SE NEW RVR IN 0825      82                N/A     5/ 6   2/12
27 SE WRIGHTSVLE 0908   78 81  180/ 12/ 17 1017.0
5 SE WRIGHTSVLE  0808   79 80  230/  4/  8 1017.5
225 S CAPE HAT   0850   82 83  140/ 12/ 14 1017.3    6/12   5/12
41 SE CHARLESTON 0850   79 82   10/  8/ 12 1015.4    2/ 9   2/ 9

$$



USA.gov is the U.S. government's official web portal to all federal, state and local government web resources and services.